| time (UTC) | temp F | wind direction | speed knots | gust knots | rain 1hr in | rain 24hr in | rain mn in | humidity % | barometer mb |
| 20260508121916 | 71 | 292 | 1.7 | 2.6 | 0.00 | 0.00 | 0.00 | 35 | 1021.0 |
| 20260508121032 | 71 | 292 | 1.7 | 2.6 | 0.00 | 0.00 | 0.00 | 35 | 1021.0 |
| 20260508120915 | 71 | 292 | 1.7 | 2.6 | 0.00 | 0.00 | 0.00 | 35 | 1021.0 |
| 20260508120030 | 70 | 296 | 1.7 | 1.7 | 0.00 | 0.00 | 0.00 | 35 | 1021.0 |
| 20260508115913 | 70 | 296 | 1.7 | 1.7 | 0.00 | 0.00 | 0.00 | 35 | 1021.0 |
| 20260508115028 | 70 | 296 | 1.7 | 1.7 | 0.00 | 0.00 | 0.00 | 35 | 1021.0 |
| 20260508114912 | 70 | 296 | 1.7 | 1.7 | 0.00 | 0.00 | 0.00 | 35 | 1021.0 |
| 20260508114027 | 70 | 296 | 1.7 | 1.7 | 0.00 | 0.00 | 0.00 | 35 | 1021.0 |
| 20260508113911 | 70 | 296 | 1.7 | 1.7 | 0.00 | 0.00 | 0.00 | 35 | 1021.0 |
| 20260508113026 | 69 | 296 | 1.7 | 1.7 | 0.00 | 0.00 | 0.00 | 30 | 1022.0 |
| 20260508112909 | 69 | 296 | 1.7 | 1.7 | 0.00 | 0.00 | 0.00 | 30 | 1022.0 |
| 20260508112024 | 68 | 296 | 1.7 | 1.7 | 0.00 | 0.00 | 0.00 | 30 | 1022.0 |
| 20260508111907 | 68 | 296 | 1.7 | 1.7 | 0.00 | 0.00 | 0.00 | 30 | 1022.0 |
| 20260508111022 | 68 | 296 | 1.7 | 1.7 | 0.00 | 0.00 | 0.00 | 30 | 1022.0 |
| 20260508110906 | 68 | 296 | 1.7 | 1.7 | 0.00 | 0.00 | 0.00 | 30 | 1022.0 |
| 20260508110021 | 68 | 299 | 0.9 | 1.7 | 0.00 | 0.00 | 0.00 | 30 | 1022.0 |
| 20260508105905 | 68 | 299 | 0.9 | 1.7 | 0.00 | 0.00 | 0.00 | 30 | 1022.0 |
| 20260508105020 | 68 | 299 | 0.9 | 1.7 | 0.00 | 0.00 | 0.00 | 30 | 1022.0 |
| 20260508104903 | 68 | 299 | 0.9 | 1.7 | 0.00 | 0.00 | 0.00 | 30 | 1022.0 |
| 20260508104019 | 68 | 299 | 0.9 | 1.7 | 0.00 | 0.00 | 0.00 | 30 | 1022.0 |
| 20260508103901 | 68 | 299 | 0.9 | 1.7 | 0.00 | 0.00 | 0.00 | 30 | 1022.0 |
| 20260508103018 | 67 | 299 | 0.9 | 1.7 | 0.00 | 0.00 | 0.00 | 40 | 1022.0 |
| 20260508102900 | 67 | 299 | 0.9 | 1.7 | 0.00 | 0.00 | 0.00 | 40 | 1022.0 |
| 20260508102016 | 66 | 299 | 0.9 | 1.7 | 0.00 | 0.00 | 0.00 | 40 | 1022.0 |
| 20260508101858 | 66 | 299 | 0.9 | 1.7 | 0.00 | 0.00 | 0.00 | 40 | 1022.0 |
| 20260508101015 | 66 | 300 | 0.9 | 1.7 | 0.00 | 0.00 | 0.00 | 40 | 1022.0 |
| 20260508100857 | 66 | 300 | 0.9 | 1.7 | 0.00 | 0.00 | 0.00 | 40 | 1022.0 |
| 20260508100014 | 66 | 300 | 0.9 | 1.7 | 0.00 | 0.00 | 0.00 | 40 | 1022.0 |
| 20260508095855 | 66 | 300 | 0.9 | 1.7 | 0.00 | 0.00 | 0.00 | 40 | 1022.0 |
| 20260508095013 | 67 | 300 | 0.9 | 1.7 | 0.00 | 0.00 | 0.00 | 40 | 1022.0 |
| 20260508094854 | 67 | 300 | 0.9 | 1.7 | 0.00 | 0.00 | 0.00 | 40 | 1022.0 |
| 20260508094011 | 65 | 300 | 0.9 | 1.7 | 0.00 | 0.00 | 0.00 | 39 | 1023.0 |
| 20260508093852 | 65 | 300 | 0.9 | 1.7 | 0.00 | 0.00 | 0.00 | 39 | 1023.0 |
| 20260508093009 | 65 | 300 | 0.9 | 1.7 | 0.00 | 0.00 | 0.00 | 39 | 1023.0 |
| 20260508092851 | 65 | 300 | 0.9 | 1.7 | 0.00 | 0.00 | 0.00 | 39 | 1023.0 |
| 20260508092008 | 65 | 300 | 0.9 | 1.7 | 0.00 | 0.00 | 0.00 | 39 | 1023.0 |
| 20260508091849 | 65 | 300 | 0.9 | 1.7 | 0.00 | 0.00 | 0.00 | 39 | 1023.0 |
| 20260508091007 | 65 | 300 | 0.9 | 1.7 | 0.00 | 0.00 | 0.00 | 39 | 1023.0 |
| 20260508090849 | 65 | 300 | 0.9 | 1.7 | 0.00 | 0.00 | 0.00 | 39 | 1023.0 |
| 20260508090005 | 65 | 325 | 0.9 | 0.9 | 0.00 | 0.00 | 0.00 | 39 | 1023.0 |
| 20260508085847 | 65 | 325 | 0.9 | 0.9 | 0.00 | 0.00 | 0.00 | 39 | 1023.0 |
| 20260508085004 | 65 | 325 | 0.9 | 0.9 | 0.00 | 0.00 | 0.00 | 39 | 1023.0 |
| 20260508084845 | 65 | 325 | 0.9 | 0.9 | 0.00 | 0.00 | 0.00 | 39 | 1023.0 |
| 20260508084003 | 63 | 325 | 0.9 | 0.9 | 0.00 | 0.00 | 0.00 | 48 | 1023.0 |
| 20260508083843 | 63 | 325 | 0.9 | 0.9 | 0.00 | 0.00 | 0.00 | 48 | 1023.0 |
| 20260508083002 | 63 | 325 | 0.9 | 0.9 | 0.00 | 0.00 | 0.00 | 48 | 1023.0 |
| 20260508082842 | 63 | 325 | 0.9 | 0.9 | 0.00 | 0.00 | 0.00 | 48 | 1023.0 |
| 20260508082000 | 63 | 325 | 0.9 | 0.9 | 0.00 | 0.00 | 0.00 | 48 | 1023.0 |
| 20260508081841 | 63 | 325 | 0.9 | 0.9 | 0.00 | 0.00 | 0.00 | 48 | 1023.0 |
| 20260508080959 | 63 | 325 | 0.9 | 0.9 | 0.00 | 0.00 | 0.00 | 48 | 1023.0 |
| 20260508080840 | 63 | 325 | 0.9 | 0.9 | 0.00 | 0.00 | 0.00 | 48 | 1023.0 |
| 20260508075958 | 63 | 10 | 0.9 | 0.9 | 0.00 | 0.00 | 0.00 | 48 | 1023.0 |
| 20260508075839 | 63 | 10 | 0.9 | 0.9 | 0.00 | 0.00 | 0.00 | 48 | 1023.0 |
| 20260508074956 | 63 | 10 | 0.9 | 0.9 | 0.00 | 0.00 | 0.00 | 48 | 1023.0 |
| 20260508074837 | 63 | 10 | 0.9 | 0.9 | 0.00 | 0.00 | 0.00 | 48 | 1023.0 |
| 20260508073955 | 63 | 10 | 0.9 | 0.9 | 0.00 | 0.00 | 0.00 | 48 | 1023.0 |
| 20260508073836 | 63 | 10 | 0.9 | 0.9 | 0.00 | 0.00 | 0.00 | 48 | 1023.0 |
| 20260508072953 | 59 | 10 | 0.9 | 0.9 | 0.00 | 0.00 | 0.00 | 59 | 1023.0 |
| 20260508072835 | 59 | 10 | 0.9 | 0.9 | 0.00 | 0.00 | 0.00 | 59 | 1023.0 |
| 20260508071952 | 59 | 284 | 0.9 | 2.6 | 0.00 | 0.00 | 0.00 | 59 | 1023.0 |
| 20260508071834 | 59 | 284 | 0.9 | 2.6 | 0.00 | 0.00 | 0.00 | 59 | 1023.0 |
| 20260508070951 | 59 | 284 | 0.9 | 2.6 | 0.00 | 0.00 | 0.00 | 59 | 1023.0 |
| 20260508070832 | 59 | 284 | 0.9 | 2.6 | 0.00 | 0.00 | 0.00 | 59 | 1023.0 |
| 20260508065950 | 60 | 252 | 0.9 | 2.6 | 0.00 | 0.00 | 0.00 | 59 | 1023.0 |
| 20260508065830 | 60 | 252 | 0.9 | 2.6 | 0.00 | 0.00 | 0.00 | 59 | 1023.0 |
| 20260508064948 | 59 | 252 | 0.9 | 2.6 | 0.00 | 0.00 | 0.00 | 59 | 1023.0 |
| 20260508064829 | 59 | 252 | 0.9 | 2.6 | 0.00 | 0.00 | 0.00 | 59 | 1023.0 |
| 20260508063946 | 59 | 252 | 0.9 | 2.6 | 0.00 | 0.00 | 0.00 | 59 | 1023.0 |
| 20260508063827 | 59 | 252 | 0.9 | 2.6 | 0.00 | 0.00 | 0.00 | 59 | 1023.0 |
| 20260508062945 | 56 | 252 | 0.9 | 2.6 | 0.00 | 0.00 | 0.00 | 67 | 1023.0 |
| 20260508062826 | 56 | 252 | 0.9 | 2.6 | 0.00 | 0.00 | 0.00 | 67 | 1023.0 |
| 20260508061943 | 52 | 252 | 0.9 | 2.6 | 0.00 | 0.00 | 0.00 | 71 | 1023.0 |
| 20260508061825 | 52 | 252 | 0.9 | 2.6 | 0.00 | 0.00 | 0.00 | 71 | 1023.0 |
| 20260508060942 | 52 | 252 | 0.9 | 2.6 | 0.00 | 0.00 | 0.00 | 71 | 1023.0 |
| 20260508060824 | 52 | 252 | 0.9 | 2.6 | 0.00 | 0.00 | 0.00 | 71 | 1023.0 |
| 20260508055940 | 52 | 137 | 0.9 | 2.6 | 0.00 | 0.00 | 0.00 | 71 | 1023.0 |
| 20260508055822 | 52 | 137 | 0.9 | 2.6 | 0.00 | 0.00 | 0.00 | 71 | 1023.0 |
| 20260508054939 | 52 | 137 | 0.9 | 2.6 | 0.00 | 0.00 | 0.00 | 71 | 1023.0 |
| 20260508054820 | 52 | 137 | 0.9 | 2.6 | 0.00 | 0.00 | 0.00 | 71 | 1023.0 |
| 20260508053938 | 52 | 137 | 0.9 | 2.6 | 0.00 | 0.00 | 0.00 | 71 | 1023.0 |
| 20260508053819 | 52 | 137 | 0.9 | 2.6 | 0.00 | 0.00 | 0.00 | 71 | 1023.0 |
| 20260508052937 | 57 | 137 | 0.9 | 2.6 | 0.00 | 0.00 | 0.00 | 48 | 1021.0 |
| 20260508052817 | 57 | 137 | 0.9 | 2.6 | 0.00 | 0.00 | 0.00 | 48 | 1021.0 |
| 20260508051935 | 57 | 137 | 0.9 | 2.6 | 0.00 | 0.00 | 0.00 | 48 | 1021.0 |
| 20260508051816 | 57 | 137 | 0.9 | 2.6 | 0.00 | 0.00 | 0.00 | 48 | 1021.0 |
| 20260508050934 | 47 | 102 | 0.9 | 2.6 | 0.00 | 0.00 | 0.00 | 81 | 1022.0 |
| 20260508050815 | 47 | 102 | 0.9 | 2.6 | 0.00 | 0.00 | 0.00 | 81 | 1022.0 |
| 20260508045932 | 47 | 102 | 0.9 | 2.6 | 0.00 | 0.00 | 0.00 | 81 | 1022.0 |
| 20260508045813 | 47 | 102 | 0.9 | 2.6 | 0.00 | 0.00 | 0.00 | 81 | 1022.0 |
| 20260508044931 | 46 | 102 | 0.9 | 2.6 | 0.00 | 0.00 | 0.00 | 81 | 1022.0 |
| 20260508044811 | 46 | 102 | 0.9 | 2.6 | 0.00 | 0.00 | 0.00 | 81 | 1022.0 |
| 20260508043929 | 46 | 102 | 0.9 | 2.6 | 0.00 | 0.00 | 0.00 | 81 | 1022.0 |
| 20260508043810 | 46 | 102 | 0.9 | 2.6 | 0.00 | 0.00 | 0.00 | 81 | 1022.0 |
| 20260508042928 | 43 | 102 | 0.9 | 2.6 | 0.00 | 0.00 | 0.00 | 93 | 1022.0 |
| 20260508042809 | 43 | 102 | 0.9 | 2.6 | 0.00 | 0.00 | 0.00 | 93 | 1022.0 |
| 20260508041926 | 44 | 102 | 0.9 | 2.6 | 0.00 | 0.00 | 0.00 | 93 | 1022.0 |
| 20260508041807 | 44 | 102 | 0.9 | 2.6 | 0.00 | 0.00 | 0.00 | 93 | 1022.0 |
| 20260508040925 | 44 | 102 | 0.9 | 2.6 | 0.00 | 0.00 | 0.00 | 93 | 1022.0 |
| 20260508040806 | 44 | 102 | 0.9 | 2.6 | 0.00 | 0.00 | 0.00 | 93 | 1022.0 |
| 20260508035924 | 43 | 97 | 0.9 | 0.9 | 0.00 | 0.00 | 0.00 | 93 | 1022.0 |
| 20260508035805 | 43 | 97 | 0.9 | 0.9 | 0.00 | 0.00 | 0.00 | 93 | 1022.0 |
| 20260508034922 | 43 | 97 | 0.9 | 0.9 | 0.00 | 0.00 | 0.00 | 93 | 1022.0 |
| 20260508034804 | 43 | 97 | 0.9 | 0.9 | 0.00 | 0.00 | 0.00 | 93 | 1022.0 |
| 20260508033921 | 43 | 97 | 0.9 | 0.9 | 0.00 | 0.00 | 0.00 | 93 | 1022.0 |
| 20260508033802 | 43 | 97 | 0.9 | 0.9 | 0.00 | 0.00 | 0.00 | 93 | 1022.0 |
| 20260508032919 | 43 | 97 | 0.9 | 0.9 | 0.00 | 0.00 | 0.00 | 87 | 1022.0 |
| 20260508032801 | 43 | 97 | 0.9 | 0.9 | 0.00 | 0.00 | 0.00 | 87 | 1022.0 |
| 20260508031917 | 43 | 97 | 0.9 | 0.9 | 0.00 | 0.00 | 0.00 | 87 | 1022.0 |
| 20260508031800 | 43 | 97 | 0.9 | 0.9 | 0.00 | 0.00 | 0.00 | 87 | 1022.0 |
| 20260508030916 | 43 | 97 | 0.9 | 0.9 | 0.00 | 0.00 | 0.00 | 87 | 1022.0 |
| 20260508030758 | 43 | 97 | 0.9 | 0.9 | 0.00 | 0.00 | 0.00 | 87 | 1022.0 |
| 20260508025915 | 43 | 26 | 0.9 | 0.9 | 0.00 | 0.00 | 0.00 | 87 | 1022.0 |
| 20260508025756 | 43 | 26 | 0.9 | 0.9 | 0.00 | 0.00 | 0.00 | 87 | 1022.0 |
| 20260508024914 | 43 | 26 | 0.9 | 0.9 | 0.00 | 0.00 | 0.00 | 87 | 1022.0 |
| 20260508024755 | 43 | 26 | 0.9 | 0.9 | 0.00 | 0.00 | 0.00 | 87 | 1022.0 |
| 20260508023912 | 43 | 26 | 0.9 | 0.9 | 0.00 | 0.00 | 0.00 | 87 | 1022.0 |
| 20260508023754 | 43 | 26 | 0.9 | 0.9 | 0.00 | 0.00 | 0.00 | 87 | 1022.0 |
| 20260508022911 | 42 | 26 | 0.9 | 0.9 | 0.00 | 0.00 | 0.00 | 93 | 1022.0 |
| 20260508022752 | 42 | 26 | 0.9 | 0.9 | 0.00 | 0.00 | 0.00 | 93 | 1022.0 |
| 20260508021910 | 42 | 26 | 0.9 | 0.9 | 0.00 | 0.00 | 0.00 | 93 | 1022.0 |
| 20260508021751 | 42 | 26 | 0.9 | 0.9 | 0.00 | 0.00 | 0.00 | 93 | 1022.0 |
| 20260508020908 | 42 | 26 | 0.9 | 0.9 | 0.00 | 0.00 | 0.00 | 93 | 1022.0 |
| 20260508020750 | 42 | 26 | 0.9 | 0.9 | 0.00 | 0.00 | 0.00 | 93 | 1022.0 |
| 20260508015907 | 42 | 295 | 0.9 | 2.6 | 0.00 | 0.00 | 0.00 | 93 | 1022.0 |
| 20260508015748 | 42 | 295 | 0.9 | 2.6 | 0.00 | 0.00 | 0.00 | 93 | 1022.0 |
| 20260508014905 | 42 | 295 | 0.9 | 2.6 | 0.00 | 0.00 | 0.00 | 93 | 1022.0 |
| 20260508014747 | 42 | 295 | 0.9 | 2.6 | 0.00 | 0.00 | 0.00 | 93 | 1022.0 |
| 20260508013903 | 43 | 295 | 0.9 | 2.6 | 0.00 | 0.00 | 0.00 | 87 | 1022.0 |
| 20260508013746 | 43 | 295 | 0.9 | 2.6 | 0.00 | 0.00 | 0.00 | 87 | 1022.0 |
| 20260508012902 | 43 | 295 | 0.9 | 2.6 | 0.00 | 0.00 | 0.00 | 87 | 1022.0 |
| 20260508012745 | 43 | 295 | 0.9 | 2.6 | 0.00 | 0.00 | 0.00 | 87 | 1022.0 |
| 20260508011900 | 43 | 295 | 0.9 | 2.6 | 0.00 | 0.00 | 0.00 | 87 | 1022.0 |
| 20260508011744 | 43 | 295 | 0.9 | 2.6 | 0.00 | 0.00 | 0.00 | 87 | 1022.0 |
| 20260508010900 | 43 | 295 | 0.9 | 2.6 | 0.00 | 0.00 | 0.00 | 87 | 1022.0 |
| 20260508010742 | 43 | 295 | 0.9 | 2.6 | 0.00 | 0.00 | 0.00 | 87 | 1022.0 |
| 20260508005858 | 43 | 106 | 0.9 | 2.6 | 0.00 | 0.00 | 0.00 | 87 | 1022.0 |
| 20260508005741 | 43 | 106 | 0.9 | 2.6 | 0.00 | 0.00 | 0.00 | 87 | 1022.0 |
| 20260508004856 | 43 | 106 | 0.9 | 2.6 | 0.00 | 0.00 | 0.00 | 87 | 1022.0 |
| 20260508004739 | 43 | 106 | 0.9 | 2.6 | 0.00 | 0.00 | 0.00 | 87 | 1022.0 |
| 20260508003855 | 43 | 106 | 0.9 | 2.6 | 0.00 | 0.00 | 0.00 | 87 | 1022.0 |
| 20260508003738 | 43 | 106 | 0.9 | 2.6 | 0.00 | 0.00 | 0.00 | 87 | 1022.0 |
| 20260508002854 | 43 | 106 | 0.9 | 2.6 | 0.00 | 0.00 | 0.00 | 87 | 1022.0 |
| 20260508002737 | 43 | 106 | 0.9 | 2.6 | 0.00 | 0.00 | 0.00 | 87 | 1022.0 |
| 20260508001853 | 43 | 106 | 0.9 | 2.6 | 0.00 | 0.00 | 0.00 | 93 | 1022.0 |
| 20260508001736 | 43 | 106 | 0.9 | 2.6 | 0.00 | 0.00 | 0.00 | 93 | 1022.0 |
| 20260508000735 | 43 | 106 | 0.9 | 2.6 | 0.00 | 0.00 | 0.00 | 93 | 1022.0 |
| 20260507235850 | 43 | 96 | 0.9 | 1.7 | 0.00 | 0.00 | 0.00 | 93 | 1022.0 |
| 20260507235733 | 43 | 96 | 0.9 | 1.7 | 0.00 | 0.00 | 0.00 | 93 | 1022.0 |
| 20260507234849 | 43 | 96 | 0.9 | 1.7 | 0.00 | 0.00 | 0.00 | 93 | 1022.0 |
| 20260507234731 | 43 | 96 | 0.9 | 1.7 | 0.00 | 0.00 | 0.00 | 93 | 1022.0 |
| 20260507233847 | 43 | 96 | 0.9 | 1.7 | 0.00 | 0.00 | 0.00 | 93 | 1022.0 |
| 20260507233730 | 43 | 96 | 0.9 | 1.7 | 0.00 | 0.00 | 0.00 | 93 | 1022.0 |
| 20260507232846 | 45 | 96 | 0.9 | 1.7 | 0.00 | 0.00 | 0.00 | 87 | 1022.0 |
| 20260507232729 | 45 | 96 | 0.9 | 1.7 | 0.00 | 0.00 | 0.00 | 87 | 1022.0 |
| 20260507231845 | 45 | 96 | 0.9 | 1.7 | 0.00 | 0.00 | 0.00 | 87 | 1022.0 |
| 20260507231727 | 45 | 96 | 0.9 | 1.7 | 0.00 | 0.00 | 0.00 | 87 | 1022.0 |
| 20260507230843 | 45 | 96 | 0.9 | 1.7 | 0.00 | 0.00 | 0.00 | 87 | 1022.0 |
| 20260507230726 | 45 | 96 | 0.9 | 1.7 | 0.00 | 0.00 | 0.00 | 87 | 1022.0 |
| 20260507225841 | 45 | 101 | 0.9 | 2.6 | 0.00 | 0.00 | 0.00 | 87 | 1022.0 |
| 20260507225724 | 45 | 101 | 0.9 | 2.6 | 0.00 | 0.00 | 0.00 | 87 | 1022.0 |
| 20260507224840 | 45 | 101 | 0.9 | 2.6 | 0.00 | 0.00 | 0.00 | 87 | 1022.0 |
| 20260507224723 | 45 | 101 | 0.9 | 2.6 | 0.00 | 0.00 | 0.00 | 87 | 1022.0 |
| 20260507223839 | 45 | 101 | 0.9 | 2.6 | 0.00 | 0.00 | 0.00 | 87 | 1022.0 |
| 20260507223722 | 45 | 101 | 0.9 | 2.6 | 0.00 | 0.00 | 0.00 | 87 | 1022.0 |
| 20260507222838 | 47 | 101 | 0.9 | 2.6 | 0.00 | 0.00 | 0.00 | 87 | 1022.0 |
| 20260507222720 | 47 | 101 | 0.9 | 2.6 | 0.00 | 0.00 | 0.00 | 87 | 1022.0 |
| 20260507221836 | 47 | 101 | 0.9 | 2.6 | 0.00 | 0.00 | 0.00 | 87 | 1022.0 |
| 20260507221719 | 47 | 101 | 0.9 | 2.6 | 0.00 | 0.00 | 0.00 | 87 | 1022.0 |
| 20260507220835 | 47 | 101 | 0.9 | 2.6 | 0.00 | 0.00 | 0.00 | 87 | 1022.0 |
| 20260507220717 | 47 | 101 | 0.9 | 2.6 | 0.00 | 0.00 | 0.00 | 87 | 1022.0 |
| 20260507215834 | 48 | 101 | 0.9 | 2.6 | 0.00 | 0.00 | 0.00 | 60 | 1020.0 |
| 20260507215716 | 48 | 101 | 0.9 | 2.6 | 0.00 | 0.00 | 0.00 | 60 | 1020.0 |
| 20260507214832 | 47 | 101 | 0.9 | 2.6 | 0.00 | 0.00 | 0.00 | 87 | 1022.0 |
| 20260507214715 | 47 | 101 | 0.9 | 2.6 | 0.00 | 0.00 | 0.00 | 87 | 1022.0 |
| 20260507213831 | 47 | 101 | 0.9 | 2.6 | 0.00 | 0.00 | 0.00 | 87 | 1022.0 |
| 20260507213714 | 47 | 101 | 0.9 | 2.6 | 0.00 | 0.00 | 0.00 | 87 | 1022.0 |
| 20260507212830 | 49 | 101 | 0.9 | 2.6 | 0.00 | 0.00 | 0.00 | 87 | 1021.0 |
| 20260507212712 | 49 | 101 | 0.9 | 2.6 | 0.00 | 0.00 | 0.00 | 87 | 1021.0 |
| 20260507211828 | 49 | 101 | 0.9 | 2.6 | 0.00 | 0.00 | 0.00 | 87 | 1021.0 |
| 20260507211711 | 49 | 101 | 0.9 | 2.6 | 0.00 | 0.00 | 0.00 | 87 | 1021.0 |
| 20260507210827 | 49 | 101 | 0.9 | 2.6 | 0.00 | 0.00 | 0.00 | 87 | 1021.0 |
| 20260507210712 | 49 | 101 | 0.9 | 2.6 | 0.00 | 0.00 | 0.00 | 87 | 1021.0 |
| 20260507205826 | 48 | 114 | 1.7 | 3.5 | 0.00 | 0.00 | 0.00 | 87 | 1021.0 |
| 20260507205707 | 48 | 114 | 1.7 | 3.5 | 0.00 | 0.00 | 0.00 | 87 | 1021.0 |
| 20260507204824 | 48 | 114 | 1.7 | 3.5 | 0.00 | 0.00 | 0.00 | 87 | 1021.0 |
| 20260507204707 | 48 | 114 | 1.7 | 3.5 | 0.00 | 0.00 | 0.00 | 87 | 1021.0 |
| 20260507203823 | 48 | 114 | 1.7 | 3.5 | 0.00 | 0.00 | 0.00 | 87 | 1021.0 |
| 20260507203705 | 48 | 114 | 1.7 | 3.5 | 0.00 | 0.00 | 0.00 | 87 | 1021.0 |
| 20260507202821 | 51 | 109 | 0.9 | 2.6 | 0.00 | 0.00 | 0.00 | 82 | 1021.0 |
| 20260507202703 | 51 | 109 | 0.9 | 2.6 | 0.00 | 0.00 | 0.00 | 82 | 1021.0 |
| 20260507201820 | 51 | 109 | 0.9 | 2.6 | 0.00 | 0.00 | 0.00 | 82 | 1021.0 |
| 20260507201702 | 51 | 109 | 0.9 | 2.6 | 0.00 | 0.00 | 0.00 | 82 | 1021.0 |
| 20260507200819 | 51 | 109 | 0.9 | 2.6 | 0.00 | 0.00 | 0.00 | 82 | 1021.0 |
| 20260507200701 | 51 | 109 | 0.9 | 2.6 | 0.00 | 0.00 | 0.00 | 82 | 1021.0 |
| 20260507195817 | 50 | 108 | 0.9 | 2.6 | 0.00 | 0.00 | 0.00 | 82 | 1021.0 |
| 20260507195659 | 50 | 108 | 0.9 | 2.6 | 0.00 | 0.00 | 0.00 | 82 | 1021.0 |
| 20260507194816 | 50 | 108 | 0.9 | 2.6 | 0.00 | 0.00 | 0.00 | 82 | 1021.0 |
| 20260507194657 | 50 | 108 | 0.9 | 2.6 | 0.00 | 0.00 | 0.00 | 82 | 1021.0 |
| 20260507193815 | 50 | 108 | 0.9 | 2.6 | 0.00 | 0.00 | 0.00 | 82 | 1021.0 |
| 20260507193656 | 50 | 108 | 0.9 | 2.6 | 0.00 | 0.00 | 0.00 | 82 | 1021.0 |
| 20260507192813 | 54 | 108 | 0.9 | 2.6 | 0.00 | 0.00 | 0.00 | 71 | 1021.0 |
| 20260507192654 | 54 | 108 | 0.9 | 2.6 | 0.00 | 0.00 | 0.00 | 71 | 1021.0 |
| 20260507191812 | 54 | 108 | 0.9 | 2.6 | 0.00 | 0.00 | 0.00 | 71 | 1021.0 |
| 20260507191653 | 54 | 108 | 0.9 | 2.6 | 0.00 | 0.00 | 0.00 | 71 | 1021.0 |
| 20260507190810 | 54 | 108 | 0.9 | 2.6 | 0.00 | 0.00 | 0.00 | 67 | 1021.0 |
| 20260507190651 | 54 | 108 | 0.9 | 2.6 | 0.00 | 0.00 | 0.00 | 67 | 1021.0 |
| 20260507185808 | 54 | 94 | 0.9 | 0.9 | 0.00 | 0.00 | 0.00 | 67 | 1021.0 |
| 20260507185649 | 54 | 94 | 0.9 | 0.9 | 0.00 | 0.00 | 0.00 | 67 | 1021.0 |
| 20260507184807 | 54 | 94 | 0.9 | 0.9 | 0.00 | 0.00 | 0.00 | 67 | 1021.0 |
| 20260507184648 | 54 | 94 | 0.9 | 0.9 | 0.00 | 0.00 | 0.00 | 67 | 1021.0 |
| 20260507183806 | 54 | 94 | 0.9 | 0.9 | 0.00 | 0.00 | 0.00 | 67 | 1021.0 |
| 20260507183647 | 54 | 94 | 0.9 | 0.9 | 0.00 | 0.00 | 0.00 | 67 | 1021.0 |
| 20260507182804 | 56 | 94 | 0.9 | 0.9 | 0.00 | 0.00 | 0.00 | 67 | 1021.0 |
| 20260507182645 | 56 | 94 | 0.9 | 0.9 | 0.00 | 0.00 | 0.00 | 67 | 1021.0 |
| 20260507181803 | 57 | 94 | 0.9 | 0.9 | 0.00 | 0.00 | 0.00 | 59 | 1020.0 |
| 20260507181643 | 57 | 94 | 0.9 | 0.9 | 0.00 | 0.00 | 0.00 | 59 | 1020.0 |
| 20260507180802 | 57 | 94 | 0.9 | 0.9 | 0.00 | 0.00 | 0.00 | 59 | 1020.0 |
| 20260507180642 | 57 | 94 | 0.9 | 0.9 | 0.00 | 0.00 | 0.00 | 59 | 1020.0 |
| 20260507175801 | 58 | 312 | 0.9 | 0.9 | 0.00 | 0.00 | 0.00 | 59 | 1020.0 |
| 20260507175641 | 58 | 312 | 0.9 | 0.9 | 0.00 | 0.00 | 0.00 | 59 | 1020.0 |
| 20260507174759 | 58 | 312 | 0.9 | 0.9 | 0.00 | 0.00 | 0.00 | 59 | 1020.0 |
| 20260507174640 | 58 | 312 | 0.9 | 0.9 | 0.00 | 0.00 | 0.00 | 59 | 1020.0 |
| 20260507173757 | 58 | 312 | 0.9 | 0.9 | 0.00 | 0.00 | 0.00 | 59 | 1020.0 |
| 20260507173638 | 58 | 312 | 0.9 | 0.9 | 0.00 | 0.00 | 0.00 | 59 | 1020.0 |
| 20260507172756 | 62 | 312 | 0.9 | 0.9 | 0.00 | 0.00 | 0.00 | 51 | 1020.0 |
| 20260507172637 | 62 | 312 | 0.9 | 0.9 | 0.00 | 0.00 | 0.00 | 51 | 1020.0 |
| 20260507171754 | 62 | 312 | 0.9 | 0.9 | 0.00 | 0.00 | 0.00 | 51 | 1020.0 |
| 20260507171635 | 62 | 312 | 0.9 | 0.9 | 0.00 | 0.00 | 0.00 | 51 | 1020.0 |
| 20260507170753 | 61 | 303 | 1.7 | 2.6 | 0.00 | 0.00 | 0.00 | 51 | 1020.0 |
| 20260507170633 | 61 | 303 | 1.7 | 2.6 | 0.00 | 0.00 | 0.00 | 51 | 1020.0 |
| 20260507165752 | 61 | 303 | 1.7 | 2.6 | 0.00 | 0.00 | 0.00 | 51 | 1020.0 |
| 20260507165632 | 61 | 303 | 1.7 | 2.6 | 0.00 | 0.00 | 0.00 | 51 | 1020.0 |
| 20260507164750 | 61 | 303 | 1.7 | 2.6 | 0.00 | 0.00 | 0.00 | 51 | 1020.0 |
| 20260507164631 | 61 | 303 | 1.7 | 2.6 | 0.00 | 0.00 | 0.00 | 51 | 1020.0 |
| 20260507163748 | 62 | 303 | 1.7 | 2.6 | 0.00 | 0.00 | 0.00 | 51 | 1020.0 |
| 20260507163629 | 62 | 303 | 1.7 | 2.6 | 0.00 | 0.00 | 0.00 | 51 | 1020.0 |
| 20260507162747 | 65 | 303 | 1.7 | 2.6 | 0.00 | 0.00 | 0.00 | 39 | 1020.0 |
| 20260507162628 | 65 | 303 | 1.7 | 2.6 | 0.00 | 0.00 | 0.00 | 39 | 1020.0 |
| 20260507161746 | 65 | 303 | 1.7 | 2.6 | 0.00 | 0.00 | 0.00 | 34 | 1020.0 |
| 20260507161627 | 65 | 303 | 1.7 | 2.6 | 0.00 | 0.00 | 0.00 | 34 | 1020.0 |
| 20260507160744 | 65 | 304 | 2.6 | 3.5 | 0.00 | 0.00 | 0.00 | 34 | 1020.0 |
| 20260507160625 | 65 | 304 | 2.6 | 3.5 | 0.00 | 0.00 | 0.00 | 34 | 1020.0 |
| 20260507155743 | 65 | 304 | 2.6 | 3.5 | 0.00 | 0.00 | 0.00 | 34 | 1020.0 |
| 20260507155623 | 65 | 304 | 2.6 | 3.5 | 0.00 | 0.00 | 0.00 | 34 | 1020.0 |
| 20260507154742 | 60 | 304 | 2.6 | 3.5 | 0.00 | 0.00 | 0.00 | 45 | 1018.0 |
| 20260507154622 | 60 | 304 | 2.6 | 3.5 | 0.00 | 0.00 | 0.00 | 45 | 1018.0 |
| 20260507153740 | 65 | 304 | 2.6 | 3.5 | 0.00 | 0.00 | 0.00 | 34 | 1020.0 |
| 20260507153620 | 65 | 304 | 2.6 | 3.5 | 0.00 | 0.00 | 0.00 | 34 | 1020.0 |
| 20260507152739 | 66 | 304 | 2.6 | 3.5 | 0.00 | 0.00 | 0.00 | 32 | 1020.0 |
| 20260507152619 | 66 | 304 | 2.6 | 3.5 | 0.00 | 0.00 | 0.00 | 32 | 1020.0 |
| 20260507151738 | 67 | 304 | 2.6 | 3.5 | 0.00 | 0.00 | 0.00 | 30 | 1020.0 |
| 20260507151617 | 67 | 304 | 2.6 | 3.5 | 0.00 | 0.00 | 0.00 | 30 | 1020.0 |
| 20260507150736 | 67 | 304 | 2.6 | 3.5 | 0.00 | 0.00 | 0.00 | 30 | 1020.0 |
| 20260507150615 | 67 | 304 | 2.6 | 3.5 | 0.00 | 0.00 | 0.00 | 30 | 1020.0 |
| 20260507145734 | 66 | 297 | 3.5 | 3.5 | 0.00 | 0.00 | 0.00 | 30 | 1020.0 |
| 20260507145614 | 66 | 297 | 3.5 | 3.5 | 0.00 | 0.00 | 0.00 | 30 | 1020.0 |
| 20260507144733 | 66 | 297 | 3.5 | 3.5 | 0.00 | 0.00 | 0.00 | 30 | 1020.0 |
| 20260507144612 | 66 | 297 | 3.5 | 3.5 | 0.00 | 0.00 | 0.00 | 30 | 1020.0 |
| 20260507143731 | 66 | 304 | 2.6 | 3.5 | 0.00 | 0.00 | 0.00 | 30 | 1020.0 |
| 20260507143611 | 66 | 304 | 2.6 | 3.5 | 0.00 | 0.00 | 0.00 | 30 | 1020.0 |
| 20260507142729 | 67 | 304 | 2.6 | 3.5 | 0.00 | 0.00 | 0.00 | 30 | 1020.0 |
| 20260507142609 | 67 | 304 | 2.6 | 3.5 | 0.00 | 0.00 | 0.00 | 30 | 1020.0 |
| 20260507141728 | 66 | 304 | 2.6 | 3.5 | 0.00 | 0.00 | 0.00 | 35 | 1020.0 |
| 20260507141608 | 66 | 304 | 2.6 | 3.5 | 0.00 | 0.00 | 0.00 | 35 | 1020.0 |
| 20260507140727 | 66 | 304 | 2.6 | 3.5 | 0.00 | 0.00 | 0.00 | 35 | 1020.0 |
| 20260507140606 | 66 | 304 | 2.6 | 3.5 | 0.00 | 0.00 | 0.00 | 35 | 1020.0 |
| 20260507135726 | 67 | 303 | 2.6 | 3.5 | 0.00 | 0.00 | 0.00 | 35 | 1020.0 |
| 20260507135605 | 67 | 303 | 2.6 | 3.5 | 0.00 | 0.00 | 0.00 | 35 | 1020.0 |
| 20260507134724 | 67 | 303 | 2.6 | 3.5 | 0.00 | 0.00 | 0.00 | 35 | 1020.0 |
| 20260507134604 | 67 | 303 | 2.6 | 3.5 | 0.00 | 0.00 | 0.00 | 35 | 1020.0 |
| 20260507133722 | 67 | 303 | 2.6 | 3.5 | 0.00 | 0.00 | 0.00 | 35 | 1020.0 |
| 20260507133602 | 67 | 303 | 2.6 | 3.5 | 0.00 | 0.00 | 0.00 | 35 | 1020.0 |
| 20260507132721 | 67 | 303 | 2.6 | 3.5 | 0.00 | 0.00 | 0.00 | 35 | 1020.0 |
| 20260507132600 | 67 | 303 | 2.6 | 3.5 | 0.00 | 0.00 | 0.00 | 35 | 1020.0 |
| 20260507131720 | 67 | 303 | 2.6 | 3.5 | 0.00 | 0.00 | 0.00 | 32 | 1020.0 |
| 20260507131559 | 67 | 303 | 2.6 | 3.5 | 0.00 | 0.00 | 0.00 | 32 | 1020.0 |
| 20260507130718 | 67 | 303 | 2.6 | 3.5 | 0.00 | 0.00 | 0.00 | 32 | 1020.0 |
| 20260507130557 | 67 | 303 | 2.6 | 3.5 | 0.00 | 0.00 | 0.00 | 32 | 1020.0 |
| 20260507125716 | 66 | 298 | 2.6 | 2.6 | 0.00 | 0.00 | 0.00 | 32 | 1020.0 |
| 20260507125555 | 66 | 298 | 2.6 | 2.6 | 0.00 | 0.00 | 0.00 | 32 | 1020.0 |
| 20260507124715 | 67 | 298 | 2.6 | 2.6 | 0.00 | 0.00 | 0.00 | 32 | 1020.0 |
| 20260507124554 | 67 | 298 | 2.6 | 2.6 | 0.00 | 0.00 | 0.00 | 32 | 1020.0 |
| 20260507123714 | 66 | 298 | 2.6 | 2.6 | 0.00 | 0.00 | 0.00 | 35 | 1020.0 |
| 20260507123553 | 66 | 298 | 2.6 | 2.6 | 0.00 | 0.00 | 0.00 | 35 | 1020.0 |
| 20260507122713 | 66 | 298 | 2.6 | 2.6 | 0.00 | 0.00 | 0.00 | 35 | 1020.0 |
| 20260507122552 | 66 | 298 | 2.6 | 2.6 | 0.00 | 0.00 | 0.00 | 35 | 1020.0 |